Presure
164 134 165 159 172 162 159 170 162 165 145 165 171 154 166 167 160 178 180 163 189 185 203 176 201 191 211 157 156 175 167 204 241 204 245 261 268 285 262 301 467 494 471 455 430 431 424 383 320 308 323 351 332 337
167 154 158 174 161 162 163 168 162 161 146 172 170 176 164 163 158 164 170 176 187 196 179 205 186 207 195 207 174 199 211 168 229 232 249 256 270 283 344 274 503 468 486 449 432 465 419 417 369 312 308 305 347 332
157 159 168 164 161 135 168 163 150 150 167 165 154 167 172 168 157 179 166 170 192 152 193 179 198 222 201 211 219 236 233 241 179 234 245 252 258 291 261 291 505 469 456 496 437 470 538 527 410 355 310 300 383 334
158 169 162 164 143 159 160 161 176 162 166 165 140 159 178 168 175 158 158 193 184 192 205 199 207 191 166 212 219 162 184 226 172 232 251 249 256 288 279 272 525 483 492 535 556 530 527 534 528 421 340 307 297 370
166 163 159 164 163 160 168 171 169 169 162 161 175 175 179 170 175 165 151 196 180 184 177 197 176 222 172 195 223 224 163 175 171 234 259 258 255 299 255 275 435 490 423 534 527 526 524 522 523 528 417 325 306 299
158 153 167 160 145 142 154 162 169 167 177 176 170 177 154 149 173 177 174 157 186 183 195 208 168 180 166 202 214 217 234 214 239 198 254 253 263 281 234 257 491 444 465 533 528 517 516 512 509 510 511 422 318 303
171 159 168 142 145 152 166 168 142 164 170 171 179 174 147 183 169 161 189 188 171 185 205 199 184 203 223 199 232 230 233 230 241 244 249 252 264 250 268 460 469 485 507 525 528 520 516 516 509 509 502 501 486 320
172 169 157 157 159 169 172 176 173 161 164 172 150 169 167 166 184 158 188 185 193 158 200 200 198 206 203 152 179 233 232 243 235 244 242 253 265 283 292 397 469 468 467 515 515 512 500 498 496 492 501 506 495 467
164 163 154 166 166 167 167 158 162 157 167 140 181 181 183 179 165 185 189 153 204 161 197 188 197 218 200 161 200 217 230 240 250 252 251 253 264 262 292 448 486 472 476 494 497 494 491 489 487 483 484 489 493 503
179 177 166 161 167 174 167 162 161 165 141 180 136 155 181 169 190 194 203 196 196 201 209 205 215 187 191 219 223 234 231 244 241 245 256 258 270 303 361 436 457 447 456 459 503 498 491 490 484 476 474 476 478 482
164 155 162 169 169 160 168 173 172 158 176 148 134 179 181 188 201 197 195 196 208 204 217 221 206 203 198 217 213 231 240 234 259 257 256 259 274 295 460 447 444 438 435 432 434 491 490 484 476 477 470 465 463 463
155 163 169 170 172 168 172 156 162 181 139 176 184 186 189 191 198 191 206 203 198 208 214 203 218 204 206 225 226 242 250 237 244 270 256 260 285 319 437 442 441 436 430 430 430 433 489 483 476 467 469 467 459 453
172 175 170 177 175 173 178 182 178 172 150 182 188 184 194 201 192 197 198 213 196 190 207 212 212 197 234 196 230 217 251 255 259 267 272 264 300 446 441 448 439 437 434 490 474 462 472 493 484 473 465 464 467 463
181 181 165 166 171 172 179 159 178 185 192 191 156 192 189 192 175 163 190 191 205 218 217 200 220 239 234 222 245 247 256 258 267 261 267 292 336 433 445 440 437 459 513 506 497 490 484 483 501 493 477 465 460 459
187 183 178 143 182 170 182 187 175 189 179 188 189 188 164 200 197 205 206 195 192 202 226 232 231 227 191 237 235 243 248 261 270 263 278 319 427 436 439 433 469 527 521 515 513 502 493 487 480 562 527 487 471 460
198 155 191 189 188 187 189 183 174 187 191 188 190 192 199 189 202 204 206 206 216 222 232 198 229 234 235 221 249 242 257 263 260 272 309 417 411 412 435 490 547 537 528 523 517 506 493 486 477 531 522 535 507 480
202 202 193 193 174 193 191 193 196 197 191 202 205 206 201 196 197 191 199 225 226 228 211 233 239 240 190 249 249 259 261 268 270 302 424 418 406 398 433 561 555 542 533 522 511 505 495 483 475 529 531 512 528 525
200 190 163 168 204 199 199 200 200 204 202 193 194 218 199 177 201 197 208 226 217 216 236 236 243 244 241 254 253 262 272 272 303 362 421 411 401 389 426 569 558 545 529 519 509 499 487 470 471 538 518 517 504 508
212 208 207 204 206 212 211 191 201 194 178 191 201 188 222 229 231 227 224 212 227 238 231 238 242 247 252 257 259 275 277 304 350 420 414 404 393 382 375 574 556 539 525 513 500 478 463 453 558 541 528 506 502 490
215 208 207 207 211 215 213 211 200 220 213 215 167 207 197 233 233 216 229 242 242 233 233 242 252 253 260 268 275 289 320 348 339 416 409 399 389 377 472 574 557 533 517 502 477 458 453 539 546 541 531 509 507 490
254 230 246 219 223 227 233 222 213 218 136 222 218 217 222 239 241 236 245 246 233 242 249 252 257 273 292 308 301 343 342 390 418 412 402 393 382 374 590 571 551 524 512 482 461 448 452 527 521 517 534 523 513 497
275 346 277 268 262 268 260 254 143 217 169 239 233 239 242 247 249 250 248 244 256 256 257 300 298 298 312 339 337 333 375 420 413 407 399 390 378 368 430 498 515 495 487 472 456 450 446 490 513 517 522 521 526 518
378 376 381 385 320 274 286 298 301 365 263 266 307 280 269 277 276 274 278 287 295 306 302 299 316 325 338 330 325 386 427 420 411 403 395 386 375 361 414 503 483 466 454 448 445 454 451 444 446 495 504 515 527 532
357 366 367 345 344 273 216 204 303 364 358 348 337 327 285 313 310 311 306 303 300 311 313 324 328 326 325 314 455 449 440 429 413 402 393 387 377 362 346 513 502 480 464 454 456 453 461 449 428 434 476 495 501 517
361 395 357 348 361 354 353 355 329 320 308 311 334 331 316 320 320 317 313 315 316 319 314 325 315 318 315 433 430 434 438 431 422 412 399 387 377 364 351 419 536 518 487 461 435 473 478 471 436 420 428 459 486 495
404 381 364 324 324 357 338 339 335 335 332 330 326 320 318 316 318 312 312 310 307 314 306 312 304 440 438 432 426 421 410 410 416 418 412 402 384 367 354 341 417 497 523 500 474 435 445 477 454 427 418 419 456 473
393 365 352 400 348 341 320 301 337 329 322 319 315 313 308 301 303 301 302 307 300 305 301 376 430 428 425 420 420 421 418 410 404 401 406 407 399 383 366 353 354 383 428 522 522 502 461 430 422 427 425 424 430 459
362 394 343 324 353 343 328 325 318 311 312 304 303 299 300 294 299 300 294 298 298 297 388 398 405 405 405 409 408 399 398 387 405 405 397 396 397 395 381 365 360 354 357 409 424 500 522 519 493 453 437 425 434 454
324 315 358 351 337 325 318 314 307 303 301 299 292 294 297 294 288 292 296 289 368 370 385 392 391 392 395 394 395 398 399 395 391 380 402 394 389 388 389 386 374 361 356 348 368 404 420 475 505 509 494 468 454 471
354 344 333 327 318 311 307 305 301 294 295 295 291 287 283 292 292 285 344 357 360 362 371 377 380 380 379 376 357 387 390 393 392 391 388 388 401 391 390 386 382 376 367 360 353 348 368 395 405 446 484 499 491 477
330 322 319 314 309 299 295 294 294 289 285 282 284 293 283 285 331 337 347 350 355 360 370 371 372 373 377 377 340 347 388 390 391 392 390 385 381 385 401 385 383 379 372 369 365 365 352 344 358 381 393 412 450 475
318 310 304 303 299 294 287 281 281 282 285 295 273 285 313 331 334 339 343 347 352 353 360 364 368 368 369 357 336 341 356 401 396 395 396 395 389 382 374 378 395 378 374 366 360 358 361 365 351 339 340 361 380 388
303 299 293 287 278 280 281 281 293 281 272 293 328 327 321 324 331 336 342 344 342 348 349 358 361 365 368 373 331 328 340 353 373 402 402 396 397 393 371 370 380 390 389 378 368 353 353 348 343 349 349 343 333 334
Wind_Speed
50 46 55 55 63 63 63 74 72 78 63 80 89 72 89 89 75 111 101 76 124 111 128 83 128 108 122 79 87 91 96 115 135 112 131 141 140 145 100 133 55 42 37 31 31 32 35 41 49 47 45 64 62 66
56 55 56 66 62 66 70 77 74 76 68 91 91 102 87 87 73 87 97 111 121 130 95 132 96 135 111 126 80 115 122 94 134 135 143 143 152 151 127 125 48 47 41 32 31 31 36 41 49 54 51 50 70 67
57 57 66 65 65 55 78 75 67 71 87 87 76 92 102 97 74 118 80 88 125 82 128 82 128 137 120 127 132 140 140 143 99 138 142 137 142 155 114 140 51 49 41 43 29 34 36 32 46 56 58 53 63 73
60 66 64 69 62 71 74 79 91 83 88 91 63 85 111 94 107 59 64 133 102 127 135 135 136 118 87 126 137 88 106 138 95 139 147 143 144 161 136 124 50 49 46 46 38 34 32 29 29 49 61 61 59 68
63 65 66 73 75 78 87 90 93 95 87 88 107 108 113 98 112 74 54 133 100 117 102 119 81 137 102 120 137 138 91 96 92 140 151 152 144 152 123 141 63 44 45 34 34 33 31 30 30 29 52 67 65 63
60 61 75 72 71 70 80 88 98 98 110 111 101 111 59 58 113 116 108 60 122 118 134 139 70 98 93 132 139 138 145 133 147 107 147 149 157 161 102 111 44 46 39 30 29 30 30 30 30 29 30 55 71 69
76 68 79 70 73 79 92 97 66 96 107 104 115 110 38 124 98 59 132 128 80 115 143 133 104 135 142 111 147 145 146 143 149 149 148 150 158 130 120 52 46 39 33 29 26 26 27 27 27 27 29 32 38 76
80 79 76 79 85 94 99 103 105 97 100 109 59 109 81 92 118 60 125 122 136 62 142 129 125 139 130 72 86 145 146 149 145 147 140 149 161 163 146 92 43 39 36 28 27 25 25 25 25 26 25 27 33 44
74 78 79 87 89 94 97 89 95 92 109 31 120 124 127 111 80 123 120 58 143 70 139 115 124 146 128 71 118 132 143 148 151 152 148 145 163 136 154 53 37 37 34 31 29 27 25 24 24 25 25 26 28 28
87 90 88 88 95 103 99 94 98 97 31 122 38 67 125 96 130 137 143 135 136 143 148 142 146 95 98 144 143 146 143 152 147 147 150 155 168 152 100 56 43 42 38 35 31 30 27 25 24 25 25 26 27 28
79 81 87 95 97 94 101 105 110 83 120 47 47 123 126 134 141 140 136 136 146 145 148 146 140 127 114 141 119 146 152 144 156 155 151 160 171 158 49 50 45 43 40 39 36 30 29 27 26 25 26 27 28 29
82 87 94 99 105 102 106 91 99 122 38 118 131 132 134 136 136 133 145 146 138 148 149 137 146 136 116 132 144 155 157 145 147 160 155 159 167 154 56 51 46 42 41 39 37 35 29 29 30 30 29 29 31 33
95 100 96 106 109 109 113 117 116 106 70 127 132 128 139 140 132 139 141 148 129 114 144 151 149 118 151 102 148 123 157 153 157 164 168 159 166 56 55 50 49 44 41 33 33 32 30 30 31 32 32 32 32 33
103 104 93 96 103 104 114 86 118 129 132 134 64 130 124 135 98 77 125 124 150 152 151 135 145 151 150 146 157 158 161 157 161 152 160 173 149 61 54 54 51 46 37 34 33 31 29 30 32 35 35 36 35 33
112 110 105 59 115 103 119 125 109 129 110 130 130 130 92 141 137 148 150 132 127 144 151 150 149 148 90 154 151 154 153 159 167 162 169 160 65 59 56 55 47 36 34 34 32 31 29 29 31 35 39 40 40 39
117 68 117 119 122 124 125 121 104 127 130 128 134 136 142 126 146 147 145 151 151 150 149 109 149 151 151 128 157 148 158 162 158 171 163 72 65 64 56 47 36 33 32 31 31 28 27 27 27 29 29 33 42 43
116 116 117 121 102 127 127 131 136 136 130 138 141 144 146 137 139 127 139 145 147 147 143 150 154 155 85 159 153 163 158 163 169 165 68 63 64 66 56 33 31 30 29 27 26 25 25 25 25 26 27 28 29 36
115 109 83 91 127 130 131 132 135 139 138 131 133 138 138 97 143 133 144 143 143 143 148 149 155 155 151 161 161 160 167 168 163 118 62 62 64 65 57 30 28 26 24 23 23 23 22 22 22 24 24 25 27 27
123 125 127 126 128 132 135 113 132 122 100 116 133 110 137 138 139 140 141 142 143 146 144 148 151 154 159 163 158 168 166 160 124 63 62 62 62 63 63 28 25 22 20 21 21 20 20 19 18 21 23 24 26 26
124 127 130 129 131 134 134 132 112 138 139 136 82 137 120 139 139 140 141 144 145 140 140 152 158 160 164 168 164 164 144 119 116 59 60 60 60 60 45 26 23 19 19 19 18 19 19 14 13 16 20 23 27 26
132 127 129 131 131 134 133 132 133 136 48 133 136 138 135 139 140 140 144 145 137 146 152 154 160 162 157 143 149 119 115 77 54 54 55 56 57 58 23 24 22 19 19 17 18 19 19 13 11 13 17 21 25 27
122 97 136 135 132 134 134 133 53 105 67 134 131 136 139 142 142 140 139 139 146 149 151 140 140 142 136 118 112 109 80 52 52 51 51 51 51 52 42 30 23 24 22 20 19 18 17 13 11 12 14 14 19 25
57 60 58 57 102 129 105 117 79 67 61 71 109 126 130 132 134 137 132 130 130 121 124 129 118 118 106 105 102 69 47 48 49 48 48 48 48 49 43 30 29 28 26 23 20 18 17 16 15 10 9 10 12 17
58 56 60 73 75 61 75 70 69 57 57 63 72 79 79 94 99 98 104 108 114 107 109 99 102 99 98 96 40 39 40 40 43 45 46 46 44 43 44 32 28 26 26 24 21 18 16 14 13 12 10 8 7 9
48 37 52 56 47 48 46 47 66 70 75 73 59 62 75 74 77 81 86 88 88 86 93 90 92 91 86 43 44 42 41 39 39 39 40 41 42 41 41 42 29 27 25 24 24 19 15 13 12 13 13 9 7 5
25 30 34 44 48 35 43 44 44 41 44 47 51 56 60 63 65 69 71 74 80 81 83 85 83 40 40 41 41 42 43 43 41 39 37 36 35 36 36 37 41 34 27 25 23 23 20 15 13 13 12 12 10 5
20 23 30 17 35 29 31 44 26 32 38 42 45 48 52 57 60 64 69 71 73 77 76 53 39 39 39 40 40 40 40 41 41 41 40 38 36 34 34 34 36 40 40 32 27 23 21 20 18 16 14 13 12 9
17 14 23 27 15 14 20 20 25 29 32 38 41 45 48 54 58 60 64 68 69 71 49 44 42 42 42 41 41 41 41 42 42 41 41 40 39 38 36 34 34 34 36 39 38 33 26 22 19 17 16 14 13 11
14 17 11 9 7 8 13 17 22 26 30 33 38 43 47 50 54 59 62 62 51 48 43 41 42 42 43 43 44 44 44 43 42 42 41 39 38 37 35 33 31 31 32 32 36 38 38 35 28 24 21 18 16 13
15 13 10 6 5 7 11 15 19 24 29 33 37 41 46 51 53 55 54 47 45 44 42 42 42 42 43 43 44 45 45 44 44 43 42 41 39 37 36 34 34 32 31 31 31 31 35 36 35 35 30 24 21 18
15 12 8 4 1 5 10 14 18 23 29 34 39 44 44 49 50 48 42 41 41 42 41 42 42 43 43 43 44 47 45 45 44 43 42 41 40 39 38 36 35 34 32 31 30 30 29 29 32 33 33 33 30 25
14 11 9 7 4 7 11 17 23 27 32 35 36 43 46 42 42 40 38 40 41 41 42 43 43 43 43 43 44 47 48 44 44 43 41 40 39 39 39 37 35 33 32 30 29 29 29 28 27 27 28 30 30 29
14 12 8 5 8 12 17 21 25 26 30 38 36 36 38 39 37 37 38 40 41 43 43 43 43 43 43 44 43 46 48 49 49 44 42 41 40 37 37 37 36 33 31 29 27 27 27 27 26 26 26 25 23 23
Wind_Direction
315 309 318 317 321 323 324 327 328 330 327 331 333 329 332 336 336 338 339 344 339 344 338 352 343 350 343 327 330 335 329 352 354 346 354 354 354 355 348 352 328 318 314 303 282 268 256 236 230 232 223 216 217 219
311 311 314 316 320 322 324 325 324 326 324 330 330 332 333 336 334 340 341 340 339 337 349 339 349 344 345 345 334 350 347 335 350 351 353 352 354 354 350 351 321 322 312 306 286 281 256 248 228 231 227 221 217 217
308 311 313 316 316 328 321 320 318 321 327 327 330 330 333 334 339 333 337 343 335 326 340 347 341 341 346 345 343 346 347 348 339 349 351 351 351 351 348 349 313 321 317 306 293 288 293 278 242 226 228 224 220 216
305 308 314 317 318 315 317 319 318 322 325 326 327 329 329 331 333 340 342 331 334 336 336 338 337 343 329 341 343 328 338 347 335 348 349 348 349 347 349 346 303 314 307 299 295 294 288 278 269 239 224 226 223 220
306 310 311 315 315 314 317 318 319 321 322 324 325 327 326 330 331 340 331 330 331 339 344 334 343 336 338 342 342 343 330 333 335 346 347 348 348 347 345 343 328 312 322 292 289 286 282 278 271 266 235 224 226 223
303 301 310 311 306 311 310 316 319 320 321 321 323 325 336 336 331 331 335 333 332 333 334 331 333 343 331 341 341 342 341 345 344 332 347 347 347 345 339 341 314 321 312 287 285 283 280 275 272 267 261 232 223 225
300 304 307 303 305 307 315 315 319 318 317 320 320 322 329 323 335 330 326 329 332 331 327 333 334 335 334 339 337 338 340 342 342 343 345 345 344 341 341 324 319 311 301 291 284 281 280 278 275 268 260 254 243 224
298 303 300 303 304 309 310 312 314 315 315 316 323 322 323 324 324 339 323 327 326 324 325 328 331 332 335 333 327 337 339 340 341 342 342 343 343 341 343 338 320 317 315 295 292 287 284 282 276 268 262 257 248 238
296 297 295 305 306 307 308 309 311 311 313 324 316 317 316 318 332 320 322 330 321 326 327 332 326 328 336 325 330 339 338 338 339 339 341 342 342 339 341 327 319 319 315 304 297 293 287 280 275 270 263 255 251 247
293 296 300 299 303 303 304 308 310 309 316 311 298 341 316 319 317 319 317 322 323 322 321 325 324 336 338 331 332 332 337 337 338 338 340 341 341 340 336 327 326 326 321 315 292 291 287 281 273 266 262 257 250 246
291 290 294 297 298 300 301 305 305 314 308 326 301 312 314 315 314 316 319 320 317 320 319 320 326 329 329 331 333 332 335 337 337 338 339 339 337 338 326 326 326 326 322 316 311 286 283 279 272 264 259 255 248 243
284 289 292 294 296 299 301 305 306 302 312 306 306 309 310 312 313 316 313 316 320 318 318 325 322 329 330 326 329 329 332 335 336 336 338 337 335 336 329 327 326 324 319 314 307 301 275 271 268 266 259 252 248 244
287 289 289 291 292 295 298 298 299 304 321 303 304 308 308 308 313 312 313 312 321 329 320 319 322 329 323 327 328 335 330 333 334 333 335 336 333 330 329 327 326 324 318 302 297 291 281 266 261 258 258 257 251 245
282 283 285 287 291 293 293 305 296 298 298 301 318 305 304 308 313 313 317 321 314 313 315 323 320 321 322 324 324 326 327 330 332 333 334 331 335 331 329 328 326 320 304 299 294 288 279 270 260 252 251 252 251 247
279 281 284 311 287 293 291 292 297 296 302 299 301 304 304 303 306 305 306 317 319 317 314 316 317 319 322 322 324 326 327 329 330 333 331 331 332 331 329 327 321 305 300 296 291 286 280 273 268 256 246 245 246 246
275 289 280 282 285 287 288 290 296 292 294 297 299 300 298 307 303 304 307 307 309 310 312 317 316 317 318 321 322 325 326 328 329 329 328 332 332 331 330 320 309 305 299 296 292 288 280 274 267 257 252 247 241 240
274 275 278 280 287 282 284 286 286 287 291 291 291 293 296 301 302 311 308 306 307 309 313 313 314 315 322 319 321 322 325 326 327 325 332 334 333 332 331 312 309 306 303 299 293 288 283 277 271 255 251 247 246 241
271 273 291 289 274 276 278 280 283 285 287 292 294 293 296 303 299 303 303 303 306 309 309 311 312 314 316 316 319 320 322 322 322 330 334 334 333 332 332 319 315 314 309 301 296 295 290 284 275 249 249 243 243 240
267 270 271 272 274 274 275 285 281 288 289 297 292 295 294 296 298 298 300 304 305 306 308 309 311 313 313 315 316 317 319 319 327 334 335 335 334 333 333 323 324 321 314 307 307 305 299 292 263 248 243 240 238 236
263 266 269 270 272 272 274 278 280 279 283 285 299 291 300 295 296 297 299 303 303 305 307 308 309 310 311 311 314 314 320 326 326 335 335 335 333 333 333 329 332 329 319 319 321 312 308 289 272 254 243 238 235 235
267 260 266 266 268 269 270 272 276 277 317 283 285 287 290 295 296 298 299 299 302 303 304 305 306 307 306 310 313 323 324 329 336 336 336 336 335 336 334 338 344 336 334 335 329 323 320 301 286 269 250 239 236 237
263 267 266 268 270 272 274 276 299 285 302 284 285 289 290 291 292 294 295 297 298 299 301 300 302 305 310 320 321 322 327 336 336 337 338 338 337 337 344 351 351 346 346 347 341 334 331 331 313 288 274 260 243 238
264 265 265 265 266 271 275 276 279 272 295 291 278 280 283 284 286 288 290 292 294 297 299 301 309 313 318 319 321 328 336 336 336 338 339 340 340 340 348 359 355 353 354 354 349 343 338 339 337 325 305 281 260 244
254 258 259 266 271 275 276 284 279 274 273 275 276 278 284 282 285 288 291 294 296 302 306 312 313 316 319 320 351 349 345 343 340 340 340 342 343 344 343 7 5 360 357 357 356 352 346 344 339 339 333 305 279 257
252 253 260 268 267 268 268 270 273 274 276 277 279 282 282 289 292 296 298 303 307 309 310 314 316 319 320 349 351 357 358 355 351 348 345 345 347 347 347 6 10 10 8 3 4 1 357 351 349 347 344 337 320 273
245 251 259 267 268 252 262 262 266 272 276 282 286 288 292 298 302 303 306 307 308 311 315 317 318 354 355 354 354 355 356 359 0 359 357 355 353 352 351 351 13 19 16 12 10 10 12 9 6 2 359 356 338 301
229 238 248 223 248 256 267 275 275 279 283 287 293 297 301 303 305 305 307 310 313 315 317 334 359 360 0 1 4 4 3 1 1 2 4 5 4 2 360 359 4 13 21 25 21 19 17 16 15 13 9 6 2 352
223 198 243 255 226 248 265 275 281 289 293 298 301 302 303 302 306 310 313 315 317 318 340 348 355 358 1 6 6 4 5 1 7 8 7 8 9 10 8 5 6 8 12 22 25 29 27 24 20 17 14 12 12 12
234 248 182 174 208 252 273 281 291 296 301 302 300 304 308 310 314 315 316 317 332 336 348 355 358 1 4 5 6 7 8 8 8 7 12 11 11 11 12 12 12 11 12 13 20 27 30 33 33 33 31 28 26 29
147 146 144 167 213 266 284 293 300 301 302 305 309 313 314 315 316 318 328 334 338 344 351 357 1 3 4 4 3 7 7 7 7 8 9 11 13 12 13 15 17 17 16 16 17 18 24 30 33 36 37 37 36 37
137 140 141 155 225 310 312 310 310 312 313 315 315 316 318 320 328 332 338 341 349 353 358 2 3 5 6 7 2 5 7 6 6 7 7 8 9 12 14 14 15 16 17 19 20 22 20 21 26 31 34 37 39 40
118 111 92 68 25 338 325 316 320 319 318 320 321 326 326 334 338 343 347 354 358 1 4 6 7 6 7 7 5 7 9 9 7 7 8 8 7 10 11 12 13 12 14 15 17 21 23 24 23 24 26 28 31 35
104 96 81 42 333 336 328 324 322 327 325 332 335 338 340 343 347 353 360 2 3 7 8 9 9 8 8 9 6 8 10 12 12 9 8 8 8 9 8 9 9 11 12 12 13 15 19 20 21 24 23 22 22 24